DW0479 Weather Reports


Display with metric or nautical units.
time (UTC)temp
F
wind
direction
speed
MPH
gust
MPH
rain 1hr
in
rain 24hr
in
rain mn
in
humidity
%
barometer
mb
20210622180022 92 152 8.0 18.0 0.00 0.00 0.00 63 1017.2
20210622175023 92 152 8.0 17.0 0.00 0.00 0.00 64 1017.4
20210622174024 91 182 9.0 21.0 0.00 0.00 0.00 67 1017.7
20210622173023 91 189 8.0 17.0 0.00 0.00 0.00 68 1017.9
20210622172023 89 165 7.0 17.0 0.00 0.00 0.00 67 1018.0
20210622171026 90 194 7.0 14.0 0.00 0.00 0.00 67 1018.1
20210622170022 89 200 7.0 12.0 0.00 0.00 0.00 70 1018.2
20210622165027 90 173 9.0 16.0 0.00 0.00 0.00 68 1018.2
20210622164014 90 183 7.0 15.0 0.00 0.00 0.00 68 1018.3
20210622163013 91 184 7.0 15.0 0.00 0.00 0.00 69 1018.3
20210622162013 90 175 7.0 16.0 0.00 0.00 0.00 70 1018.3
20210622161013 91 202 7.0 15.0 0.00 0.00 0.00 71 1018.3
20210622160014 89 194 7.0 14.0 0.00 0.00 0.00 72 1018.4
20210622155012 89 152 7.0 14.0 0.00 0.00 0.00 71 1018.5
20210622154012 90 192 5.0 11.0 0.00 0.00 0.00 73 1018.5
20210622153013 87 163 7.0 12.0 0.00 0.00 0.00 74 1018.4
20210622152013 89 192 7.0 14.0 0.00 0.00 0.00 73 1018.5
20210622151012 88 154 6.0 12.0 0.00 0.00 0.00 72 1018.4
20210622150011 88 156 6.0 13.0 0.00 0.00 0.00 73 1018.4
20210622145010 89 160 5.0 13.0 0.00 0.00 0.00 74 1018.4
20210622144010 88 154 6.0 11.0 0.00 0.00 0.00 76 1018.2
20210622143012 88 196 6.0 15.0 0.00 0.00 0.00 74 1018.1
20210622142012 87 148 6.0 12.0 0.00 0.00 0.00 76 1018.2
20210622141005 88 171 5.0 12.0 0.00 0.00 0.00 77 1018.2
20210622140004 87 177 4.0 10.0 0.00 0.00 0.00 77 1018.1
20210622135004 87 162 4.0 10.0 0.00 0.00 0.00 81 1018.0
20210622134007 86 162 6.0 11.0 0.00 0.00 0.00 80 1018.0
20210622133002 85 150 4.0 10.0 0.00 0.00 0.00 82 1018.1
20210622132003 85 161 4.0 11.0 0.00 0.00 0.00 84 1018.1
20210622131003 85 169 3.0 6.0 0.00 0.00 0.00 85 1018.1
20210622130004 84 166 3.0 9.0 0.00 0.00 0.00 86 1018.2
20210622125003 83 161 3.0 7.0 0.00 0.00 0.00 88 1018.3
20210622124002 83 140 2.0 6.0 0.00 0.00 0.00 88 1018.2
20210622122959 83 163 2.0 5.0 0.00 0.00 0.00 89 1017.9
20210622121959 82 167 2.0 4.0 0.00 0.00 0.00 89 1017.8
20210622121002 82 152 2.0 4.0 0.00 0.00 0.00 90 1017.7
20210622120000 82 152 2.0 4.0 0.00 0.00 0.00 90 1017.6
20210622114959 82 152 2.0 4.0 0.00 0.00 0.00 90 1017.5
20210622113958 81 150 1.0 3.0 0.00 0.00 0.00 91 1017.5
20210622112959 81 150 2.0 4.0 0.00 0.00 0.00 91 1017.3
20210622111958 81 148 0.0 3.0 0.00 0.00 0.00 92 1017.1
20210622111000 81 152 0.0 0.0 0.00 0.00 0.00 92 1016.8
20210622105948 80 153 0.0 0.0 0.00 0.00 0.00 92 1016.8
20210622104949 80 153 0.0 0.0 0.00 0.00 0.00 92 1016.9
20210622103950 80 153 0.0 0.0 0.00 0.00 0.00 92 1016.9
20210622102949 80 153 0.0 0.0 0.00 0.00 0.00 92 1016.7
20210622101950 80 153 0.0 0.0 0.00 0.00 0.00 91 1016.6
20210622100938 81 153 0.0 0.0 0.00 0.00 0.00 91 1016.4
20210622095938 81 153 0.0 0.0 0.00 0.00 0.00 91 1016.3
20210622094937 81 153 0.0 0.0 0.00 0.00 0.00 92 1016.4
20210622093938 81 153 0.0 0.0 0.00 0.00 0.00 92 1016.3
20210622092939 81 155 0.0 0.0 0.00 0.00 0.00 92 1016.3
20210622091939 81 155 0.0 0.0 0.00 0.00 0.00 92 1016.3
20210622090938 81 156 0.0 0.0 0.00 0.00 0.00 91 1016.5
20210622085935 81 154 0.0 2.0 0.00 0.00 0.00 91 1016.4
20210622084935 81 155 1.0 6.0 0.00 0.00 0.00 91 1016.4
20210622083936 81 149 2.0 6.0 0.00 0.00 0.00 91 1016.4
20210622082937 81 145 1.0 6.0 0.00 0.00 0.00 91 1016.5
20210622081935 81 142 1.0 3.0 0.00 0.00 0.00 91 1016.7
20210622080937 81 142 1.0 4.0 0.00 0.00 0.00 90 1016.7
20210622075936 81 140 0.0 0.0 0.00 0.00 0.00 90 1016.7
20210622074937 81 139 1.0 4.0 0.00 0.00 0.00 90 1016.8
20210622073927 81 132 1.0 4.0 0.00 0.00 0.00 90 1016.9
20210622072926 81 150 1.0 4.0 0.00 0.00 0.00 90 1017.1
20210622071927 81 142 0.0 3.0 0.00 0.00 0.00 89 1017.2
20210622070926 81 144 1.0 4.0 0.00 0.00 0.00 89 1017.3
20210622065923 81 124 0.0 0.0 0.00 0.00 0.00 89 1017.5
20210622064925 82 122 0.0 0.0 0.00 0.00 0.00 89 1017.4
20210622063924 82 121 1.0 3.0 0.00 0.00 0.00 88 1017.4
20210622062923 82 119 1.0 4.0 0.00 0.00 0.00 88 1017.5
20210622061920 82 115 2.0 4.0 0.00 0.00 0.00 88 1017.6
20210622060920 82 109 0.0 4.0 0.00 0.00 0.00 88 1017.7
20210622055921 82 109 1.0 4.0 0.00 0.00 0.00 88 1017.9
20210622054925 82 109 1.0 3.0 0.00 0.00 0.00 88 1017.9
20210622053921 82 109 0.0 4.0 0.00 0.00 0.00 88 1018.1
20210622052918 82 109 0.0 0.0 0.00 0.00 0.00 88 1018.3
20210622051920 82 107 1.0 2.0 0.00 0.00 0.00 87 1018.3
20210622050920 82 107 1.0 3.0 0.00 0.00 0.00 87 1018.5
20210622045920 82 107 0.0 0.0 0.00 0.00 0.00 88 1018.7
20210622044917 82 107 1.0 3.0 0.00 0.00 0.00 88 1018.7
20210622043917 82 90 1.0 4.0 0.00 0.00 0.00 88 1018.7
20210622042919 82 168 1.0 3.0 0.00 0.00 0.00 88 1018.7
20210622041918 82 168 0.0 1.0 0.00 0.00 0.00 87 1018.9
20210622040916 82 168 0.0 1.0 0.00 0.00 0.00 87 1018.9
20210622035917 82 168 0.0 2.0 0.00 0.00 0.00 87 1018.9
20210622034914 82 168 0.0 2.0 0.00 0.00 0.00 87 1018.9
20210622033913 82 168 0.0 0.0 0.00 0.00 0.00 87 1018.9
20210622032912 82 168 0.0 0.0 0.00 0.00 0.00 87 1018.9
20210622031911 82 168 0.0 0.0 0.00 0.00 0.00 86 1018.9
20210622030912 82 168 0.0 0.0 0.00 0.00 0.00 86 1018.8
20210622025908 82 168 0.0 0.0 0.00 0.00 0.00 85 1018.8
20210622024905 82 168 0.0 0.0 0.00 0.00 0.00 85 1018.6
20210622023907 82 168 0.0 0.0 0.00 0.00 0.00 85 1018.5
20210622022906 82 168 0.0 0.0 0.00 0.00 0.00 85 1018.4
20210622021908 82 168 0.0 0.0 0.00 0.00 0.00 85 1018.3
20210622020851 82 168 0.0 3.0 0.00 0.00 0.00 84 1018.1
20210622015852 82 168 1.0 3.0 0.00 0.00 0.00 84 1017.9
20210622014855 82 168 0.0 2.0 0.00 0.00 0.00 84 1017.6
20210622013850 83 168 1.0 3.0 0.00 0.00 0.00 84 1017.6
20210622012852 82 168 0.0 3.0 0.00 0.00 0.00 83 1017.3
20210622011850 83 168 0.0 0.0 0.00 0.00 0.00 83 1017.2
20210622010849 83 168 0.0 0.0 0.00 0.00 0.00 83 1017.3
20210622005849 83 168 0.0 0.0 0.00 0.00 0.00 82 1017.2
20210622004849 83 168 0.0 0.0 0.00 0.00 0.00 81 1017.0
20210622003847 83 168 0.0 0.0 0.00 0.00 0.00 81 1017.0
20210622002846 83 168 0.0 0.0 0.00 0.00 0.00 80 1016.8
20210622001847 84 168 1.0 6.0 0.00 0.00 0.00 79 1016.7
20210622000848 84 156 2.0 4.0 0.00 0.00 0.00 78 1016.7
20210621235848 84 161 2.0 4.0 0.00 0.00 0.00 77 1016.7
20210621234846 85 153 1.0 4.0 0.00 0.00 0.00 76 1016.7
20210621233845 85 157 3.0 8.0 0.00 0.00 0.00 75 1016.4
20210621232844 85 142 3.0 7.0 0.00 0.00 0.00 74 1016.3
20210621231844 85 148 3.0 7.0 0.00 0.00 0.00 73 1016.2
20210621230846 86 114 3.0 8.0 0.00 0.00 0.00 72 1016.1
20210621225846 86 171 4.0 8.0 0.00 0.00 0.00 70 1016.0
20210621224843 87 154 4.0 9.0 0.00 0.00 0.00 70 1016.1
20210621223842 87 135 5.0 10.0 0.00 0.00 0.00 68 1016.0
20210621222840 87 150 5.0 11.0 0.00 0.00 0.00 68 1015.9
20210621221841 88 160 5.0 11.0 0.00 0.00 0.00 69 1015.9
20210621220843 88 161 4.0 11.0 0.00 0.00 0.00 69 1015.8
20210621215841 89 135 5.0 12.0 0.00 0.00 0.00 68 1015.8
20210621214842 88 144 6.0 11.0 0.00 0.00 0.00 69 1015.9
20210621213842 88 133 6.0 13.0 0.00 0.00 0.00 68 1015.9
20210621212843 88 134 6.0 10.0 0.00 0.00 0.00 68 1016.1
20210621211842 88 151 6.0 11.0 0.00 0.00 0.00 69 1016.2
20210621210836 88 137 6.0 14.0 0.00 0.00 0.00 69 1016.4
20210621205834 89 119 6.0 13.0 0.00 0.00 0.00 67 1016.6
20210621204835 89 165 6.0 12.0 0.00 0.00 0.00 67 1016.6
20210621203834 90 160 6.0 13.0 0.00 0.00 0.00 66 1016.6
20210621202835 90 114 7.0 15.0 0.00 0.00 0.00 66 1016.8
20210621201834 90 161 7.0 15.0 0.00 0.00 0.00 65 1016.7
20210621200834 91 125 6.0 15.0 0.00 0.00 0.00 62 1016.8
20210621195834 90 163 7.0 14.0 0.00 0.00 0.00 61 1016.9
20210621194836 91 108 6.0 11.0 0.00 0.00 0.00 63 1016.9
20210621193832 91 162 6.0 12.0 0.00 0.00 0.00 61 1017.0
20210621192832 90 153 6.0 15.0 0.00 0.00 0.00 62 1017.1
20210621191832 91 127 7.0 13.0 0.00 0.00 0.00 62 1017.3
20210621190830 90 144 6.0 13.0 0.00 0.00 0.00 63 1017.4
20210621185830 90 168 7.0 12.0 0.00 0.00 0.00 66 1017.6
20210621184833 91 158 7.0 14.0 0.00 0.00 0.00 66 1017.8
20210621183831 91 145 7.0 14.0 0.00 0.00 0.00 66 1017.9
20210621182830 90 151 6.0 12.0 0.00 0.00 0.00 68 1018.1
20210621181832 90 154 6.0 14.0 0.00 0.00 0.00 67 1018.2
20210621180821 89 131 7.0 14.0 0.00 0.00 0.00 67 1018.4